Weather History for Logansport, IN

Change the Weather History Date:

Sunday, September 9, 2012

  Actual Average Record
Temperature  
Mean Temperature 60 °F -  
Max Temperature 69 °F 78 °F 91 °F (2013)
Min Temperature 51 °F 58 °F 60 °F (2013)
Degree Days  
Heating Degree Days 5    
Growing Degree Days 10 (Base 50)    
Moisture  
Dew Point 52 °F    
Average Humidity 77    
Maximum Humidity 100    
Minimum Humidity 52    
Precipitation  
Precipitation 0.00 in - - ()
Sea Level Pressure  
Sea Level Pressure 29.99 in    
Wind  
Wind Speed 5 mph ()    
Max Wind Speed 13 mph    
Max Gust Speed 17 mph    
Visibility 10.0 miles    
Events Rain    
Averages and records for this station are not official NWS values.
T = Trace of Precipitation, MM = Missing Value Source: Averaged Metar Reports

Daily Weather History Graph

Daily Weather History Graph

Search for Another Location

Airport:

Trip Planner

Search our weather history database for the weather conditions in past years. The results will help you decide how hot, cold, wet, or windy it might be!

Date:

Astronomy

Sep. 09, 2012 Rise Set
Actual Time 7:20 AM EDT 8:03 PM EDT
Civil Twilight 6:53 AM EDT 8:31 PM EDT
Nautical Twilight 6:20 AM EDT 9:04 PM EDT
Astronomical Twilight 5:46 AM EDT 9:37 PM EDT
Moon 12:48 AM EDT (9/9) 3:50 PM EDT (9/9)
Length of Visible Light 13h 38m
Length of Day
12h 42m
Last Quarter, 39% of the Moon is Illuminated
Sep 9
Last Quarter
Sep 15
New
Sep 22
First Quarter
Sep 29
Full
Oct 8
Last Quarter

Hourly Weather History & Observations

Time (EDT) Temp. Dew Point Humidity Pressure Visibility Wind Dir Wind Speed Gust Speed Precip Events Conditions
12:15 AM 53.6 °F 50.0 °F 88% 29.89 in 10.0 mi SSW 5.8 mph - N/A   Clear
12:35 AM 53.6 °F 50.0 °F 88% 29.89 in 10.0 mi SW 6.9 mph - N/A   Clear
12:55 AM 53.6 °F 50.0 °F 88% 29.90 in 10.0 mi SW 5.8 mph - N/A   Clear
1:15 AM 53.6 °F 50.0 °F 88% 29.90 in 10.0 mi SW 5.8 mph - N/A   Clear
1:35 AM 53.6 °F 50.0 °F 88% 29.90 in 10.0 mi SW 4.6 mph - N/A   Scattered Clouds
1:55 AM 53.6 °F 51.8 °F 94% 29.90 in 10.0 mi WSW 4.6 mph - N/A   Overcast
2:15 AM 53.6 °F 51.8 °F 94% 29.89 in 10.0 mi SW 4.6 mph - N/A   Overcast
2:35 AM 55.4 °F 51.8 °F 88% 29.90 in 10.0 mi WNW 4.6 mph - N/A   Overcast
2:55 AM 55.4 °F 51.8 °F 88% 29.89 in 10.0 mi WSW 4.6 mph - N/A   Overcast
3:15 AM 55.4 °F 51.8 °F 88% 29.89 in 10.0 mi Calm Calm - N/A   Overcast
3:35 AM 55.4 °F 51.8 °F 88% 29.89 in 10.0 mi Calm Calm - N/A   Overcast
3:55 AM 55.4 °F 53.6 °F 94% 29.88 in 10.0 mi South 3.5 mph - N/A   Overcast
4:15 AM 55.4 °F 53.6 °F 94% 29.88 in 10.0 mi South 3.5 mph - N/A   Overcast
4:55 AM 53.6 °F 51.8 °F 94% 29.87 in 10.0 mi ESE 3.5 mph - N/A   Mostly Cloudy
5:15 AM 55.4 °F 51.8 °F 88% 29.89 in 10.0 mi East 4.6 mph - N/A   Overcast
5:35 AM 55.4 °F 51.8 °F 88% 29.89 in 10.0 mi ENE 5.8 mph - N/A   Overcast
5:55 AM 55.4 °F 51.8 °F 88% 29.90 in 10.0 mi ENE 4.6 mph - N/A   Overcast
6:15 AM 53.6 °F 51.8 °F 94% 29.89 in 10.0 mi ESE 5.8 mph - N/A   Mostly Cloudy
6:35 AM 53.6 °F 51.8 °F 94% 29.90 in 10.0 mi Calm Calm - N/A   Scattered Clouds
6:55 AM 53.6 °F 51.8 °F 94% 29.91 in 10.0 mi Calm Calm - N/A   Scattered Clouds
7:15 AM 53.6 °F 51.8 °F 94% 29.91 in 10.0 mi East 3.5 mph - N/A   Scattered Clouds
7:35 AM 51.8 °F 50.0 °F 94% 29.92 in 10.0 mi East 5.8 mph - N/A   Scattered Clouds
7:55 AM 53.6 °F 51.8 °F 94% 29.93 in 10.0 mi ENE 3.5 mph - N/A   Mostly Cloudy
8:15 AM 51.8 °F 51.8 °F 100% 29.94 in 10.0 mi SE 3.5 mph - N/A   Scattered Clouds
8:35 AM 53.6 °F 51.8 °F 94% 29.95 in 10.0 mi North 4.6 mph - N/A   Clear
8:55 AM 55.4 °F 53.6 °F 94% 29.95 in 10.0 mi Calm Calm - N/A   Clear
9:15 AM 59.0 °F 53.6 °F 82% 29.96 in 10.0 mi East 5.8 mph - N/A   Clear
9:35 AM 59.0 °F 53.6 °F 82% 29.97 in 10.0 mi Calm Calm - N/A   Clear
10:15 AM 60.8 °F 53.6 °F 77% 29.99 in 10.0 mi NNE 5.8 mph - N/A   Clear
10:35 AM 62.6 °F 53.6 °F 72% 29.99 in 10.0 mi NNW 3.5 mph - N/A   Clear
10:55 AM 64.4 °F 53.6 °F 68% 30.00 in 10.0 mi NNE 5.8 mph - N/A   Clear
11:35 AM 66.2 °F 53.6 °F 64% 30.01 in 10.0 mi North 4.6 mph - N/A   Clear
11:55 AM 66.2 °F 53.6 °F 64% 30.01 in 10.0 mi North 6.9 mph - N/A   Scattered Clouds
12:15 PM 66.2 °F 53.6 °F 64% 30.01 in 10.0 mi North 6.9 mph - N/A   Mostly Cloudy
12:35 PM 64.4 °F 53.6 °F 68% 30.01 in 10.0 mi North 8.1 mph - N/A   Mostly Cloudy
12:55 PM 66.2 °F 51.8 °F 60% 30.02 in 10.0 mi North 11.5 mph - N/A   Mostly Cloudy
1:15 PM 68.0 °F 51.8 °F 56% 30.01 in 10.0 mi NNW 8.1 mph - N/A   Scattered Clouds
1:35 PM 69.8 °F 51.8 °F 53% 30.01 in 10.0 mi North 6.9 mph - N/A   Mostly Cloudy
1:55 PM 69.8 °F 51.8 °F 53% 30.01 in 10.0 mi NNE 8.1 mph - N/A   Mostly Cloudy
2:15 PM 69.8 °F 53.6 °F 56% 30.02 in 10.0 mi North 6.9 mph - N/A   Scattered Clouds
2:35 PM 68.0 °F 51.8 °F 56% 30.02 in 10.0 mi NNW 6.9 mph - N/A   Mostly Cloudy
2:55 PM 64.4 °F 53.6 °F 68% 30.03 in 10.0 mi NW 5.8 mph - N/A   Overcast
3:15 PM 64.4 °F 53.6 °F 68% 30.03 in 10.0 mi NW 5.8 mph - N/A Rain Light Rain
3:35 PM 69.8 °F 57.2 °F 64% 30.02 in 10.0 mi WNW 6.9 mph - N/A   Mostly Cloudy
3:55 PM 66.2 °F 57.2 °F 73% 30.03 in 10.0 mi WNW 8.1 mph - N/A   Mostly Cloudy
4:15 PM 66.2 °F 57.2 °F 73% 30.03 in 10.0 mi WNW 6.9 mph - N/A   Overcast
4:35 PM 69.8 °F 57.2 °F 64% 30.03 in 10.0 mi WNW 5.8 mph - N/A   Mostly Cloudy
5:15 PM 66.2 °F 55.4 °F 68% 30.04 in 10.0 mi NNW 4.6 mph - N/A   Overcast
5:35 PM 69.8 °F 55.4 °F 60% 30.04 in 10.0 mi NW 5.8 mph - N/A   Mostly Cloudy
5:55 PM 68.0 °F 53.6 °F 60% 30.05 in 10.0 mi NNW 6.9 mph - N/A   Mostly Cloudy
6:15 PM 69.8 °F 51.8 °F 53% 30.05 in 10.0 mi NNW 11.5 mph 17.3 mph N/A   Overcast
6:55 PM 68.0 °F 51.8 °F 56% 30.06 in 10.0 mi North 8.1 mph - N/A   Clear
7:15 PM 68.0 °F 50.0 °F 52% 30.06 in 10.0 mi NNW 8.1 mph - N/A   Clear
7:35 PM 64.4 °F 50.0 °F 59% 30.07 in 10.0 mi NNW 12.7 mph - N/A   Clear
7:55 PM 62.6 °F 50.0 °F 63% 30.07 in 10.0 mi NNW 8.1 mph - N/A   Clear
8:15 PM 62.6 °F 50.0 °F 63% 30.08 in 10.0 mi NNW 5.8 mph - N/A   Clear
8:35 PM 60.8 °F 50.0 °F 68% 30.09 in 10.0 mi NNW 5.8 mph - N/A   Clear
8:55 PM 60.8 °F 50.0 °F 68% 30.09 in 10.0 mi North 5.8 mph - N/A   Clear
9:15 PM 59.0 °F 50.0 °F 72% 30.10 in 10.0 mi North 6.9 mph - N/A   Clear
9:35 PM 59.0 °F 50.0 °F 72% 30.11 in 10.0 mi North 6.9 mph - N/A   Clear
9:55 PM 59.0 °F 50.0 °F 72% 30.12 in 10.0 mi North 5.8 mph - N/A   Clear
10:15 PM 57.2 °F 50.0 °F 77% 30.12 in 10.0 mi NNW 6.9 mph - N/A   Clear
10:35 PM 55.4 °F 50.0 °F 82% 30.12 in 10.0 mi NNW 4.6 mph - N/A   Clear
10:55 PM 55.4 °F 50.0 °F 82% 30.13 in 10.0 mi NNW 4.6 mph - N/A   Clear
11:15 PM 53.6 °F 50.0 °F 88% 30.14 in 10.0 mi NNW 5.8 mph - N/A   Clear
11:35 PM 53.6 °F 50.0 °F 88% 30.14 in 10.0 mi North 5.8 mph - N/A   Clear
11:55 PM 53.6 °F 50.0 °F 88% 30.14 in 10.0 mi NNW 4.6 mph - N/A   Clear